Time,TemperatureF,DewpointF,PressureIn,WindDirection,WindDirectionDegrees,WindSpeedMPH,WindSpeedGustMPH,Humidity,HourlyPrecipIn,Conditions,Clouds,dailyrainin,SolarRadiationWatts/m^2,SoftwareType,DateUTC
2013-07-17 00:07:00,70.6,68.0,30.16,West,280,0.0,2.0,90,0.00,,,0.00,0,weatherlink.com 1.10,2013-07-17 04:07:00,
2013-07-17 00:22:00,70.5,68.0,30.16,West,279,0.0,3.0,90,0.00,,,0.00,0,weatherlink.com 1.10,2013-07-17 04:22:00,
2013-07-17 00:37:00,70.5,67.0,30.16,West,279,3.0,3.0,89,0.00,,,0.00,0,weatherlink.com 1.10,2013-07-17 04:37:00,
2013-07-17 00:52:00,70.0,67.0,30.16,West,279,1.0,3.0,90,0.00,,,0.00,0,weatherlink.com 1.10,2013-07-17 04:52:00,
2013-07-17 01:07:00,69.7,67.0,30.16,West,279,3.0,3.0,91,0.00,,,0.00,0,weatherlink.com 1.10,2013-07-17 05:07:00,
2013-07-17 01:22:00,69.9,67.0,30.16,West,279,3.0,4.0,91,0.00,,,0.00,0,weatherlink.com 1.10,2013-07-17 05:22:00,
2013-07-17 01:37:00,69.4,67.0,30.16,WNW,284,2.0,6.0,91,0.00,,,0.00,0,weatherlink.com 1.10,2013-07-17 05:37:00,
2013-07-17 01:52:00,70.7,67.0,30.15,West,276,2.0,5.0,88,0.00,,,0.00,0,weatherlink.com 1.10,2013-07-17 05:52:00,
2013-07-17 02:07:00,70.9,67.0,30.15,WNW,285,0.0,0.0,87,0.00,,,0.00,0,weatherlink.com 1.10,2013-07-17 06:07:00,
2013-07-17 02:22:00,69.7,66.0,30.15,WNW,285,0.0,3.0,89,0.00,,,0.00,0,weatherlink.com 1.10,2013-07-17 06:22:00,
2013-07-17 02:37:00,69.3,67.0,30.14,WNW,285,2.0,3.0,91,0.00,,,0.00,0,weatherlink.com 1.10,2013-07-17 06:37:00,
2013-07-17 02:52:00,69.6,67.0,30.14,WNW,285,1.0,3.0,91,0.00,,,0.00,0,weatherlink.com 1.10,2013-07-17 06:52:00,
2013-07-17 03:07:00,69.6,67.0,30.14,WNW,285,0.0,2.0,90,0.00,,,0.00,0,weatherlink.com 1.10,2013-07-17 07:07:00,
2013-07-17 03:22:00,68.6,66.0,30.14,WNW,285,0.0,1.0,92,0.00,,,0.00,0,weatherlink.com 1.10,2013-07-17 07:22:00,
2013-07-17 03:37:00,69.0,67.0,30.14,WNW,285,0.0,1.0,92,0.00,,,0.00,0,weatherlink.com 1.10,2013-07-17 07:37:00,
2013-07-17 03:52:00,68.7,67.0,30.14,WNW,285,0.0,1.0,93,0.00,,,0.00,0,weatherlink.com 1.10,2013-07-17 07:52:00,
2013-07-17 04:07:00,69.0,66.0,30.15,WNW,285,2.0,3.0,91,0.00,,,0.00,0,weatherlink.com 1.10,2013-07-17 08:07:00,
2013-07-17 04:22:00,68.5,66.0,30.15,WNW,285,2.0,3.0,92,0.00,,,0.00,0,weatherlink.com 1.10,2013-07-17 08:22:00,
2013-07-17 04:37:00,68.5,66.0,30.15,WNW,285,0.0,3.0,91,0.00,,,0.00,0,weatherlink.com 1.10,2013-07-17 08:37:00,
2013-07-17 04:52:00,68.2,65.0,30.15,WNW,290,2.0,4.0,90,0.00,,,0.00,0,weatherlink.com 1.10,2013-07-17 08:52:00,
2013-07-17 05:07:00,68.3,65.0,30.15,WNW,283,0.0,2.0,90,0.00,,,0.00,0,weatherlink.com 1.10,2013-07-17 09:07:00,
2013-07-17 05:22:00,67.7,65.0,30.15,WNW,283,0.0,3.0,91,0.00,,,0.00,0,weatherlink.com 1.10,2013-07-17 09:22:00,
2013-07-17 05:37:00,67.6,65.0,30.16,WNW,283,0.0,0.0,91,0.00,,,0.00,0,weatherlink.com 1.10,2013-07-17 09:37:00,
2013-07-17 05:52:00,67.4,65.0,30.16,SW,232,2.0,4.0,92,0.00,,,0.00,7,weatherlink.com 1.10,2013-07-17 09:52:00,
2013-07-17 06:07:00,67.7,65.0,30.17,West,275,3.0,5.0,91,0.00,,,0.00,18,weatherlink.com 1.10,2013-07-17 10:07:00,
2013-07-17 06:22:00,68.4,66.0,30.17,West,265,2.0,4.0,91,0.00,,,0.00,35,weatherlink.com 1.10,2013-07-17 10:22:00,
2013-07-17 06:37:00,69.0,66.0,30.17,West,265,2.0,3.0,91,0.00,,,0.00,58,weatherlink.com 1.10,2013-07-17 10:37:00,
2013-07-17 06:52:00,69.6,67.0,30.17,West,266,2.0,3.0,91,0.00,,,0.00,93,weatherlink.com 1.10,2013-07-17 10:52:00,
2013-07-17 07:07:00,70.6,68.0,30.18,West,266,0.0,3.0,91,0.00,,,0.00,135,weatherlink.com 1.10,2013-07-17 11:07:00,
2013-07-17 07:22:00,72.2,69.0,30.18,West,266,0.0,0.0,89,0.00,,,0.00,179,weatherlink.com 1.10,2013-07-17 11:22:00,
2013-07-17 07:38:00,74.2,70.0,30.18,West,266,2.0,4.0,86,0.00,,,0.00,225,weatherlink.com 1.10,2013-07-17 11:38:00,
2013-07-17 07:53:00,75.1,70.0,30.18,SW,235,4.0,5.0,85,0.00,,,0.00,269,weatherlink.com 1.10,2013-07-17 11:53:00,
2013-07-17 08:08:00,76.1,70.0,30.18,West,267,0.0,6.0,81,0.00,,,0.00,315,weatherlink.com 1.10,2013-07-17 12:08:00,
2013-07-17 08:23:00,77.6,71.0,30.17,West,275,3.0,6.0,79,0.00,,,0.00,362,weatherlink.com 1.10,2013-07-17 12:23:00,
2013-07-17 08:38:00,78.0,71.0,30.17,West,261,5.0,6.0,79,0.00,,,0.00,408,weatherlink.com 1.10,2013-07-17 12:38:00,
2013-07-17 08:53:00,78.7,72.0,30.17,WSW,240,4.0,6.0,79,0.00,,,0.00,455,weatherlink.com 1.10,2013-07-17 12:53:00,
2013-07-17 09:08:00,79.8,73.0,30.17,WSW,248,2.0,6.0,79,0.00,,,0.00,499,weatherlink.com 1.10,2013-07-17 13:08:00,
2013-07-17 09:23:00,80.1,73.0,30.17,SW,236,6.0,7.0,78,0.00,,,0.00,548,weatherlink.com 1.10,2013-07-17 13:23:00,
2013-07-17 09:38:00,80.8,73.0,30.16,WSW,247,7.0,8.0,76,0.00,,,0.00,608,weatherlink.com 1.10,2013-07-17 13:38:00,
2013-07-17 09:53:00,82.0,74.0,30.16,WSW,248,4.0,7.0,76,0.00,,,0.00,619,weatherlink.com 1.10,2013-07-17 13:53:00,
2013-07-17 10:08:00,82.1,73.0,30.15,West,265,0.0,8.0,74,0.00,,,0.00,652,weatherlink.com 1.10,2013-07-17 14:08:00,
2013-07-17 10:23:00,83.2,74.0,30.15,WSW,240,4.0,7.0,74,0.00,,,0.00,679,weatherlink.com 1.10,2013-07-17 14:23:00,
2013-07-17 10:39:00,83.2,74.0,30.15,WSW,246,4.0,7.0,74,0.00,,,0.00,701,weatherlink.com 1.10,2013-07-17 14:39:00,
2013-07-17 10:53:00,83.4,74.0,30.14,West,280,5.0,8.0,74,0.00,,,0.00,751,weatherlink.com 1.10,2013-07-17 14:53:00,
2013-07-17 11:08:00,84.2,76.0,30.14,West,261,0.0,9.0,75,0.00,,,0.00,780,weatherlink.com 1.10,2013-07-17 15:08:00,
2013-07-17 11:24:00,84.6,76.0,30.14,WNW,287,0.0,7.0,74,0.00,,,0.00,837,weatherlink.com 1.10,2013-07-17 15:24:00,
2013-07-17 11:39:00,85.0,75.0,30.13,WSW,243,5.0,9.0,72,0.00,,,0.00,846,weatherlink.com 1.10,2013-07-17 15:39:00,
2013-07-17 11:54:00,85.2,75.0,30.12,West,274,5.0,9.0,72,0.00,,,0.00,884,weatherlink.com 1.10,2013-07-17 15:54:00,
2013-07-17 12:09:00,85.4,74.0,30.12,West,263,7.0,10.0,69,0.00,,,0.00,867,weatherlink.com 1.10,2013-07-17 16:09:00,
2013-07-17 12:24:00,85.8,74.0,30.12,WSW,252,2.0,10.0,67,0.00,,,0.00,860,weatherlink.com 1.10,2013-07-17 16:24:00,
2013-07-17 12:39:00,85.9,75.0,30.12,West,270,8.0,10.0,70,0.00,,,0.00,935,weatherlink.com 1.10,2013-07-17 16:39:00,
2013-07-17 12:54:00,86.7,75.0,30.12,WSW,244,10.0,10.0,69,0.00,,,0.00,963,weatherlink.com 1.10,2013-07-17 16:54:00,
2013-07-17 13:09:00,86.8,73.0,30.12,WSW,244,2.0,9.0,64,0.00,,,0.00,1002,weatherlink.com 1.10,2013-07-17 17:09:00,
2013-07-17 13:24:00,86.4,75.0,30.11,West,275,11.0,13.0,69,0.00,,,0.00,875,weatherlink.com 1.10,2013-07-17 17:24:00,
2013-07-17 13:39:00,86.9,75.0,30.10,WSW,257,5.0,12.0,67,0.00,,,0.00,925,weatherlink.com 1.10,2013-07-17 17:39:00,
2013-07-17 13:54:00,87.5,75.0,30.09,West,267,4.0,9.0,66,0.00,,,0.00,962,weatherlink.com 1.10,2013-07-17 17:54:00,
2013-07-17 14:09:00,87.6,75.0,30.09,SW,230,6.0,8.0,66,0.00,,,0.00,158,weatherlink.com 1.10,2013-07-17 18:09:00,
2013-07-17 14:24:00,87.5,74.0,30.08,WNW,286,7.0,12.0,64,0.00,,,0.00,926,weatherlink.com 1.10,2013-07-17 18:24:00,
2013-07-17 14:39:00,87.5,75.0,30.07,NW,304,0.0,10.0,66,0.00,,,0.00,944,weatherlink.com 1.10,2013-07-17 18:39:00,
2013-07-17 14:55:00,88.3,75.0,30.07,WSW,244,5.0,9.0,64,0.00,,,0.00,914,weatherlink.com 1.10,2013-07-17 18:55:00,
2013-07-17 15:09:00,88.8,75.0,30.07,WSW,258,4.0,10.0,64,0.00,,,0.00,867,weatherlink.com 1.10,2013-07-17 19:09:00,
2013-07-17 15:24:00,88.9,76.0,30.06,WNW,300,7.0,14.0,66,0.00,,,0.00,824,weatherlink.com 1.10,2013-07-17 19:24:00,
2013-07-17 15:39:00,89.0,75.0,30.06,West,261,10.0,13.0,64,0.00,,,0.00,793,weatherlink.com 1.10,2013-07-17 19:39:00,
2013-07-17 15:54:00,89.1,75.0,30.05,West,264,2.0,12.0,64,0.00,,,0.00,752,weatherlink.com 1.10,2013-07-17 19:54:00,
2013-07-17 16:09:00,88.7,77.0,30.05,WSW,249,8.0,9.0,68,0.00,,,0.00,701,weatherlink.com 1.10,2013-07-17 20:09:00,
2013-07-17 16:24:00,88.6,76.0,30.04,West,269,8.0,10.0,66,0.00,,,0.00,745,weatherlink.com 1.10,2013-07-17 20:24:00,
2013-07-17 16:39:00,88.6,75.0,30.04,WSW,248,4.0,11.0,65,0.00,,,0.00,244,weatherlink.com 1.10,2013-07-17 20:39:00,
2013-07-17 16:54:00,88.9,75.0,30.02,WSW,254,6.0,10.0,63,0.00,,,0.00,601,weatherlink.com 1.10,2013-07-17 20:54:00,
2013-07-17 17:09:00,88.6,75.0,30.02,WSW,237,10.0,13.0,65,0.00,,,0.00,575,weatherlink.com 1.10,2013-07-17 21:09:00,
2013-07-17 17:24:00,88.2,75.0,30.02,WSW,253,9.0,12.0,65,0.00,,,0.00,520,weatherlink.com 1.10,2013-07-17 21:24:00,
2013-07-17 17:39:00,88.4,76.0,30.02,WSW,245,3.0,12.0,66,0.00,,,0.00,468,weatherlink.com 1.10,2013-07-17 21:39:00,
2013-07-17 17:54:00,87.9,74.0,30.02,WSW,249,9.0,13.0,64,0.00,,,0.00,383,weatherlink.com 1.10,2013-07-17 21:54:00,
2013-07-17 18:09:00,86.3,73.0,30.03,West,281,3.0,10.0,65,0.00,,,0.00,120,weatherlink.com 1.10,2013-07-17 22:09:00,
2013-07-17 18:24:00,85.1,73.0,30.03,WNW,286,2.0,5.0,68,0.00,,,0.00,91,weatherlink.com 1.10,2013-07-17 22:24:00,
2013-07-17 18:39:00,84.1,74.0,30.03,WSW,256,2.0,6.0,71,0.00,,,0.00,77,weatherlink.com 1.10,2013-07-17 22:39:00,
2013-07-17 18:54:00,83.0,73.0,30.02,West,259,5.0,8.0,72,0.00,,,0.00,74,weatherlink.com 1.10,2013-07-17 22:54:00,
2013-07-17 19:09:00,82.5,73.0,30.01,WSW,256,7.0,10.0,72,0.00,,,0.00,77,weatherlink.com 1.10,2013-07-17 23:09:00,
2013-07-17 19:24:00,82.5,73.0,30.01,WSW,248,3.0,7.0,73,0.00,,,0.00,155,weatherlink.com 1.10,2013-07-17 23:24:00,
2013-07-17 19:39:00,82.7,73.0,30.01,WSW,246,9.0,12.0,72,0.00,,,0.00,104,weatherlink.com 1.10,2013-07-17 23:39:00,
2013-07-17 19:54:00,82.3,73.0,30.01,West,263,7.0,11.0,74,0.00,,,0.00,74,weatherlink.com 1.10,2013-07-17 23:54:00,
2013-07-17 20:09:00,81.6,73.0,30.02,West,267,1.0,8.0,76,0.00,,,0.00,33,weatherlink.com 1.10,2013-07-18 00:09:00,
2013-07-17 20:25:00,81.0,74.0,30.02,WSW,247,5.0,7.0,78,0.00,,,0.00,19,weatherlink.com 1.10,2013-07-18 00:25:00,
2013-07-17 20:40:00,80.2,73.0,30.02,WSW,258,1.0,7.0,78,0.00,,,0.00,5,weatherlink.com 1.10,2013-07-18 00:40:00,
2013-07-17 20:55:00,80.0,73.0,30.02,West,264,1.0,6.0,79,0.00,,,0.00,0,weatherlink.com 1.10,2013-07-18 00:55:00,
2013-07-17 21:10:00,78.8,73.0,30.01,West,259,4.0,6.0,82,0.00,,,0.00,0,weatherlink.com 1.10,2013-07-18 01:10:00,
2013-07-17 21:25:00,77.9,73.0,30.00,West,264,3.0,7.0,84,0.00,,,0.00,0,weatherlink.com 1.10,2013-07-18 01:25:00,
2013-07-17 21:40:00,77.6,73.0,30.00,WSW,254,5.0,7.0,84,0.00,,,0.00,0,weatherlink.com 1.10,2013-07-18 01:40:00,
2013-07-17 21:55:00,77.3,73.0,30.00,WSW,244,5.0,7.0,85,0.00,,,0.00,0,weatherlink.com 1.10,2013-07-18 01:55:00,
2013-07-17 22:10:00,77.2,72.0,30.00,WSW,253,6.0,8.0,85,0.00,,,0.00,0,weatherlink.com 1.10,2013-07-18 02:10:00,
2013-07-17 22:25:00,77.1,72.0,30.00,SW,224,1.0,8.0,85,0.00,,,0.00,0,weatherlink.com 1.10,2013-07-18 02:25:00,
2013-07-17 22:40:00,77.2,72.0,30.01,WSW,255,6.0,7.0,85,0.00,,,0.00,0,weatherlink.com 1.10,2013-07-18 02:40:00,
2013-07-17 22:55:00,77.4,72.0,30.01,SW,230,3.0,6.0,84,0.00,,,0.00,0,weatherlink.com 1.10,2013-07-18 02:55:00,
2013-07-17 23:10:00,77.2,72.0,30.01,SW,235,4.0,6.0,84,0.00,,,0.00,0,weatherlink.com 1.10,2013-07-18 03:10:00,
2013-07-17 23:25:00,77.2,72.0,30.02,West,261,4.0,8.0,84,0.00,,,0.00,0,weatherlink.com 1.10,2013-07-18 03:25:00,
2013-07-17 23:40:00,77.3,72.0,30.01,West,260,7.0,10.0,84,0.00,,,0.00,0,weatherlink.com 1.10,2013-07-18 03:40:00,
2013-07-17 23:55:00,77.3,72.0,30.01,West,263,6.0,8.0,84,0.00,,,0.00,0,weatherlink.com 1.10,2013-07-18 03:55:00,